Le nostre stazioni meteo in Italia

Pubblicità
Il mio iltempo24.it
Decimomannu, Italia (16546): Temperatura & dewpoint: 18.07.2019 07:00:00 - 24.07.2019 07:00:00 (CEST)Decimomannu, Italia (16546): velocità del vento: 18.07.2019 07:00:00 - 24.07.2019 07:00:00 (CEST)Decimomannu, Italia (16546): direzione del vento: 18.07.2019 07:00:00 - 24.07.2019 07:00:00 (CEST)Decimomannu, Italia (16546): reduced air pressure: 18.07.2019 07:00:00 - 24.07.2019 07:00:00 (CEST)Decimomannu, Italia (16546): visibility: 18.07.2019 07:00:00 - 24.07.2019 07:00:00 (CEST)
Data & Tempo tt [°C] td [°C] ff [km/h] ff [kn] dd ppp [hPa] vv [km]
24.07.2019 07:00:00 - - - - - - -
24.07.2019 06:00:00 22,0 19,0 4 2 N - 10
24.07.2019 05:00:00 22,0 19,4 4 2 NNO 1014,9 20
24.07.2019 04:00:00 23,0 20,0 5 3 N - 10
24.07.2019 03:00:00 23,0 20,0 4 2 N - 10
24.07.2019 02:00:00 24,0 20,9 8 4 N 1015,6 20
24.07.2019 01:00:00 25,0 22,0 5 3 NNO - 10
24.07.2019 00:00:00 26,0 24,0 9 5 NNO - 10
23.07.2019 23:00:00 26,0 21,9 4 2 NNO 1016,2 16
23.07.2019 22:00:00 27,0 21,0 2 1 ENE - 10
23.07.2019 21:00:00 29,0 21,0 4 2 ESE - 10
23.07.2019 20:00:00 31,0 20,9 9 5 SSE 1015,7 25
23.07.2019 19:00:00 33,0 19,0 15 8 SSE - 10
23.07.2019 18:00:00 34,0 20,0 16 9 SSE - 10
23.07.2019 17:00:00 34,2 19,5 18 10 SSE 1016,2 20
23.07.2019 16:00:00 34,0 19,0 22 12 SE - 10
23.07.2019 15:00:00 34,0 23,0 22 12 SE - 10
23.07.2019 14:00:00 35,0 23,3 18 10 SSE 1016,6 20
23.07.2019 13:00:00 36,0 19,0 9 5 S - 10
23.07.2019 12:00:00 35,0 18,0 9 5 SSE - 10
23.07.2019 11:00:00 32,6 18,0 8 4 SSE 1017,7 20
23.07.2019 10:00:00 30,0 19,0 5 3 SSE - 10
23.07.2019 09:00:00 25,0 20,0 4 2 NNO - 10
23.07.2019 08:00:00 22,4 18,6 5 3 NNO 1017,7 15
23.07.2019 07:00:00 21,0 18,0 4 2 NNO - 10
23.07.2019 06:00:00 21,0 18,0 5 3 N - 10
23.07.2019 05:00:00 21,8 19,2 8 4 N 1017,9 20
23.07.2019 04:00:00 22,0 19,0 8 4 N - 10
23.07.2019 03:00:00 23,0 21,0 5 3 NNO - 10
23.07.2019 02:00:00 24,4 21,7 5 3 N 1018,8 25
23.07.2019 01:00:00 25,0 23,0 9 5 NNO - 10
23.07.2019 00:00:00 26,0 23,0 8 4 NNO - 10
22.07.2019 23:00:00 26,6 23,5 13 7 N 1019,1 20
22.07.2019 22:00:00 28,0 21,0 11 6 NNO - 10
22.07.2019 21:00:00 29,0 23,0 5 3 ONO - 10
22.07.2019 20:00:00 32,0 21,5 11 6 SE 1018,7 20
22.07.2019 19:00:00 34,0 16,0 15 8 SE - 10
22.07.2019 18:00:00 34,0 16,0 18 10 SE - 10
22.07.2019 17:00:00 34,8 15,7 24 13 SE 1019,9 25
22.07.2019 16:00:00 35,0 16,0 21 11 SE - 10
22.07.2019 15:00:00 35,0 14,0 26 14 SE - 10
22.07.2019 14:00:00 36,8 11,6 13 7 S 1019,9 25
22.07.2019 13:00:00 35,0 15,0 9 5 SE - 10
22.07.2019 12:00:00 35,0 17,0 5 3 SO - 10
22.07.2019 11:00:00 32,0 15,9 5 3 SSO 1020,7 25
22.07.2019 10:00:00 28,0 20,0 5 3 OSO - 10
22.07.2019 09:00:00 24,0 19,0 5 3 ONO - 10
22.07.2019 08:00:00 21,2 17,6 5 3 NO 1020,8 20
22.07.2019 07:00:00 20,0 17,0 4 2 N - 10
22.07.2019 06:00:00 20,0 17,0 8 4 N - 10
22.07.2019 05:00:00 20,8 17,8 5 3 NO 1020,2 10
22.07.2019 04:00:00 21,0 18,0 4 2 NE - 10
22.07.2019 03:00:00 22,0 19,0 8 4 NE - 10
22.07.2019 02:00:00 23,8 21,1 4 2 E 1020,8 15
22.07.2019 01:00:00 24,0 21,0 4 2 E - 10
22.07.2019 00:00:00 24,0 21,0 9 5 E - 10
21.07.2019 23:00:00 24,2 21,3 9 5 E 1020,5 15
21.07.2019 22:00:00 25,0 23,0 8 4 ENE - 10
21.07.2019 21:00:00 26,0 23,0 11 6 SE - 10
21.07.2019 20:00:00 28,8 22,8 21 11 SE 1019,2 20
21.07.2019 19:00:00 30,0 24,0 21 11 SSE - 10
21.07.2019 18:00:00 31,0 18,0 22 12 SSE - 10
21.07.2019 17:00:00 31,0 18,0 26 14 SSE 1019,0 20
21.07.2019 16:00:00 31,0 24,0 21 11 SSE - 10
21.07.2019 15:00:00 31,0 25,0 26 14 SSE - 10
21.07.2019 14:00:00 31,2 24,6 24 13 SSE 1019,7 20
21.07.2019 13:00:00 31,0 24,0 21 11 S - 10
21.07.2019 12:00:00 31,0 21,0 18 10 SSE - 10
21.07.2019 11:00:00 31,0 17,7 9 5 SE 1019,1 20
21.07.2019 10:00:00 30,0 20,0 5 3 E - 10
21.07.2019 09:00:00 25,0 21,0 4 2 NO - 10
21.07.2019 08:00:00 23,0 19,0 4 2 NNE 1019,3 20
21.07.2019 07:00:00 20,0 17,0 8 4 NNE - 10
21.07.2019 06:00:00 20,0 17,0 8 4 NE - 10
21.07.2019 05:00:00 20,8 18,0 9 5 NE 1018,3 20
21.07.2019 04:00:00 21,0 18,0 9 5 ENE - 10
21.07.2019 03:00:00 21,0 18,0 8 4 NE - 10
21.07.2019 02:00:00 22,8 20,0 4 2 NNE 1018,7 20
21.07.2019 01:00:00 23,0 21,0 2 1 NE - 10
21.07.2019 00:00:00 24,0 21,0 5 3 NNE - 10
20.07.2019 23:00:00 24,4 21,5 4 2 E 1017,8 20
20.07.2019 22:00:00 25,0 22,0 11 6 S - 10
20.07.2019 21:00:00 26,0 23,0 13 7 SSE - 10
20.07.2019 20:00:00 28,0 23,2 16 9 SSE 1016,7 30
20.07.2019 19:00:00 29,0 24,0 22 12 SSE - 10
20.07.2019 18:00:00 30,0 21,0 24 13 SSE - 10
20.07.2019 17:00:00 30,6 20,5 28 15 SSE 1016,7 20
20.07.2019 16:00:00 31,0 17,0 29 16 SSE - 10
20.07.2019 15:00:00 32,0 16,0 29 16 SSE - 10
20.07.2019 14:00:00 31,8 16,5 24 13 SSE 1016,6 30
20.07.2019 13:00:00 32,0 17,0 22 12 SSE - 10
20.07.2019 12:00:00 31,0 19,0 16 9 SSE - 10
20.07.2019 11:00:00 30,0 20,8 15 8 SSE 1016,6 20
20.07.2019 10:00:00 28,0 23,0 13 7 SE - 10
20.07.2019 09:00:00 26,0 22,0 9 5 SSE - 10
20.07.2019 08:00:00 23,0 19,8 5 3 ENE 1016,3 10
20.07.2019 07:00:00 20,0 17,0 5 3 ENE - 10
20.07.2019 06:00:00 20,0 18,0 4 2 ENE - 10
20.07.2019 05:00:00 19,4 16,4 2 1 NNE 1015,9 15
20.07.2019 04:00:00 21,0 18,0 2 1 E - 10
20.07.2019 03:00:00 21,0 18,0 4 2 NE - 10
20.07.2019 02:00:00 21,2 18,2 4 2 SE 1016,1 20
20.07.2019 01:00:00 23,0 20,0 8 4 NNE - 10
20.07.2019 00:00:00 23,0 20,0 9 5 NNO - 10
19.07.2019 23:00:00 23,8 21,1 8 4 N 1015,9 20
19.07.2019 22:00:00 24,0 21,0 11 6 NNO - 10
19.07.2019 21:00:00 26,0 21,0 13 7 NNO - 10
19.07.2019 20:00:00 27,8 21,1 15 8 NNO 1014,9 20
19.07.2019 19:00:00 30,0 22,0 15 8 SSE - 10
19.07.2019 18:00:00 31,0 21,0 16 9 SSE - 10
19.07.2019 17:00:00 32,0 20,9 22 12 SE 1014,4 30
19.07.2019 16:00:00 33,0 18,0 21 11 SSE - 10
19.07.2019 15:00:00 33,0 21,0 22 12 SSE - 10
19.07.2019 14:00:00 32,8 19,7 24 13 SSE 1014,7 30
19.07.2019 13:00:00 32,0 17,0 11 6 N - 10
19.07.2019 12:00:00 31,0 17,0 13 7 ONO - 10
19.07.2019 11:00:00 29,0 20,5 15 8 NNO 1014,9 30
19.07.2019 10:00:00 27,0 22,0 18 10 N - 10
19.07.2019 09:00:00 24,0 21,0 18 10 NNO - 10
19.07.2019 08:00:00 22,0 18,8 13 7 N 1014,7 10
19.07.2019 07:00:00 21,0 18,0 13 7 NNE - 10
19.07.2019 06:00:00 21,0 18,0 15 8 N - 10
19.07.2019 05:00:00 21,4 18,4 11 6 N 1014,2 14
19.07.2019 04:00:00 21,0 18,0 13 7 N - 10
19.07.2019 03:00:00 23,0 20,0 16 9 N - 10
19.07.2019 02:00:00 22,8 20,1 15 8 N 1014,0 15
19.07.2019 01:00:00 23,0 20,0 15 8 NNO - 10
19.07.2019 00:00:00 23,0 21,0 9 5 NO - 10
18.07.2019 23:00:00 24,0 21,3 11 6 N 1013,7 14
18.07.2019 22:00:00 25,0 23,0 13 7 NNO - 10
18.07.2019 21:00:00 27,0 22,0 22 12 NNO - 10
18.07.2019 20:00:00 28,2 21,7 24 13 NO 1011,7 25
18.07.2019 19:00:00 31,0 21,0 29 16 NO - 10
18.07.2019 18:00:00 31,0 19,0 29 16 NO - 10
18.07.2019 17:00:00 31,2 16,0 26 14 NO 1010,7 20
18.07.2019 16:00:00 31,0 15,0 28 15 NNO - 10
18.07.2019 15:00:00 - - - - - - -
18.07.2019 14:00:00 32,0 16,3 28 15 NO 1011,4 20
18.07.2019 13:00:00 - - - - - - -
18.07.2019 12:00:00 30,0 19,0 16 9 NNO - 10
18.07.2019 11:00:00 27,0 22,6 22 12 NNO 1011,8 20
18.07.2019 10:00:00 25,0 21,0 18 10 NNO - 10
18.07.2019 09:00:00 22,0 18,0 15 8 NNO - 10
18.07.2019 08:00:00 20,2 16,8 8 4 NO 1011,7 20
18.07.2019 07:00:00 18,0 15,0 5 3 NNO - 10

tt = Temperatura
td = dewpoint
ff = velocità del vento
dd = direzione del vento
ppp = reduced air pressure
vv = visibility

Stazioni seguenti

WeatherPro
AMSI
MeteoEarth